Météo par heure à Al Karnak

Ce jour, 15 Mai, Samedi

Heure Température Précipitation Vent Pression Humidité
00:00 +30°C° 0 mm 3 m/s 748 mmHg 12%
01:00 +29°C° 0 mm 3 m/s 748 mmHg 14%
02:00 +28°C° 0 mm 3 m/s 748 mmHg 15%
03:00 +27°C° 0 mm 3 m/s 748 mmHg 17%
04:00 +27°C° 0 mm 2 m/s 748 mmHg 18%
05:00 +26°C° 0 mm 2 m/s 748 mmHg 19%
06:00 +27°C° 0 mm 2 m/s 748 mmHg 16%
07:00 +29°C° 0 mm 2 m/s 748 mmHg 14%
08:00 +31°C° 0 mm 2 m/s 748 mmHg 11%
09:00 +34°C° 0 mm 2 m/s 748 mmHg 9%
10:00 +36°C° 0 mm 2 m/s 748 mmHg 7%
11:00 +38°C° 0 mm 2 m/s 748 mmHg 5%
12:00 +39°C° 0 mm 2 m/s 747 mmHg 4%
13:00 +42°C° 0 mm 3 m/s 747 mmHg 4%
14:00 +43°C° 0 mm 3 m/s 746 mmHg 3%
15:00 +43°C° 0 mm 3 m/s 746 mmHg 2%
16:00 +43°C° 0 mm 4 m/s 745 mmHg 2%
17:00 +43°C° 0 mm 4 m/s 745 mmHg 2%
18:00 +41°C° 0 mm 4 m/s 745 mmHg 3%
19:00 +38°C° 0 mm 4 m/s 746 mmHg 3%
20:00 +36°C° 0 mm 5 m/s 746 mmHg 4%
21:00 +35°C° 0 mm 4 m/s 746 mmHg 4%
22:00 +33°C° 0 mm 4 m/s 747 mmHg 5%
23:00 +31°C° 0 mm 3 m/s 747 mmHg 6%

Demain, 16 Mai, Dimanche

Heure Température Précipitation Vent Pression Humidité
00:00 +30°C° 0 mm 3 m/s 747 mmHg 7%
01:00 +29°C° 0 mm 2 m/s 746 mmHg 8%
02:00 +29°C° 0 mm 2 m/s 746 mmHg 8%
03:00 +28°C° 0 mm 2 m/s 746 mmHg 9%
04:00 +28°C° 0 mm 2 m/s 746 mmHg 10%
05:00 +28°C° 0 mm 2 m/s 746 mmHg 11%
06:00 +30°C° 0 mm 2 m/s 746 mmHg 10%
07:00 +31°C° 0 mm 2 m/s 747 mmHg 9%
08:00 +34°C° 0 mm 2 m/s 747 mmHg 8%
09:00 +37°C° 0 mm 2 m/s 747 mmHg 8%
10:00 +39°C° 0 mm 3 m/s 747 mmHg 7%
11:00 +42°C° 0 mm 3 m/s 747 mmHg 6%
12:00 +43°C° 0 mm 5 m/s 746 mmHg 6%
13:00 +45°C° 0 mm 6 m/s 745 mmHg 6%
14:00 +46°C° 0 mm 7 m/s 745 mmHg 5%
15:00 +46°C° 0 mm 8 m/s 744 mmHg 6%
16:00 +45°C° 0 mm 8 m/s 744 mmHg 6%
17:00 +45°C° 0 mm 9 m/s 744 mmHg 6%
18:00 +43°C° 0 mm 7 m/s 745 mmHg 7%
19:00 +40°C° 0 mm 5 m/s 745 mmHg 9%
20:00 +37°C° 0 mm 3 m/s 745 mmHg 10%
21:00 +36°C° 0 mm 2 m/s 745 mmHg 11%
22:00 +34°C° 0 mm 1 m/s 745 mmHg 11%
23:00 +31°C° 0 mm 0 m/s 745 mmHg 12%

Après-demain, 17 Mai, Lundi

Heure Température Précipitation Vent Pression Humidité
00:00 +33°C° 0 mm 1 m/s 745 mmHg 13%
01:00 +32°C° 0 mm 2 m/s 745 mmHg 13%
02:00 +33°C° 0 mm 3 m/s 745 mmHg 13%
03:00 +30°C° 0 mm 3 m/s 745 mmHg 18%
04:00 +29°C° 0 mm 3 m/s 746 mmHg 23%
05:00 +28°C° 0 mm 3 m/s 746 mmHg 27%
06:00 +29°C° 0 mm 4 m/s 747 mmHg 28%
07:00 +30°C° 0 mm 4 m/s 747 mmHg 28%
08:00 +32°C° 0 mm 5 m/s 748 mmHg 28%
09:00 +34°C° 0 mm 5 m/s 748 mmHg 24%
10:00 +36°C° 0 mm 6 m/s 748 mmHg 19%
11:00 +39°C° 0 mm 6 m/s 748 mmHg 15%
12:00 +40°C° 0 mm 7 m/s 747 mmHg 14%
13:00 +41°C° 0 mm 7 m/s 747 mmHg 12%
14:00 +43°C° 0 mm 7 m/s 746 mmHg 10%
15:00 +41°C° 0 mm 7 m/s 746 mmHg 11%
16:00 +41°C° 0 mm 7 m/s 746 mmHg 12%
17:00 +40°C° 0 mm 8 m/s 746 mmHg 12%
18:00 +39°C° 0 mm 7 m/s 747 mmHg 14%
19:00 +36°C° 0 mm 7 m/s 747 mmHg 15%
20:00 +35°C° 0 mm 6 m/s 747 mmHg 16%
21:00 +34°C° 0 mm 6 m/s 748 mmHg 17%
22:00 +33°C° 0 mm 5 m/s 748 mmHg 18%
23:00 +32°C° 0 mm 4 m/s 748 mmHg 18%

18 Mai, Mardi

Heure Température Précipitation Vent Pression Humidité
00:00 +30°C° 0 mm 4 m/s 748 mmHg 20%
01:00 +29°C° 0 mm 3 m/s 747 mmHg 21%
02:00 +28°C° 0 mm 3 m/s 747 mmHg 23%
03:00 +28°C° 0 mm 3 m/s 747 mmHg 25%
04:00 +27°C° 0 mm 3 m/s 748 mmHg 26%
05:00 +26°C° 0 mm 3 m/s 748 mmHg 28%
06:00 +28°C° 0 mm 3 m/s 748 mmHg 27%
07:00 +29°C° 0 mm 3 m/s 748 mmHg 25%
08:00 +31°C° 0 mm 3 m/s 749 mmHg 24%
09:00 +34°C° 0 mm 4 m/s 749 mmHg 21%
10:00 +36°C° 0 mm 4 m/s 748 mmHg 18%
11:00 +38°C° 0 mm 4 m/s 748 mmHg 15%
12:00 +40°C° 0 mm 4 m/s 748 mmHg 14%
13:00 +41°C° 0 mm 5 m/s 747 mmHg 12%
14:00 +42°C° 0 mm 5 m/s 747 mmHg 11%
15:00 +42°C° 0 mm 6 m/s 746 mmHg 11%
16:00 +42°C° 0 mm 6 m/s 746 mmHg 11%
17:00 +43°C° 0 mm 7 m/s 746 mmHg 11%
18:00 +40°C° 0 mm 7 m/s 746 mmHg 11%
19:00 +38°C° 0 mm 6 m/s 747 mmHg 12%
20:00 +36°C° 0 mm 6 m/s 747 mmHg 12%
21:00 +35°C° 0 mm 5 m/s 747 mmHg 13%
22:00 +34°C° 0 mm 5 m/s 747 mmHg 14%
23:00 +33°C° 0 mm 4 m/s 748 mmHg 15%

19 Mai, Mercredi

Heure Température Précipitation Vent Pression Humidité
00:00 +32°C° 0 mm 4 m/s 747 mmHg 17%
01:00 +30°C° 0 mm 3 m/s 747 mmHg 18%
02:00 +29°C° 0 mm 3 m/s 747 mmHg 20%
03:00 +28°C° 0 mm 3 m/s 747 mmHg 21%
04:00 +28°C° 0 mm 3 m/s 747 mmHg 22%
05:00 +27°C° 0 mm 2 m/s 747 mmHg 24%
06:00 +29°C° 0 mm 2 m/s 747 mmHg 22%
07:00 +31°C° 0 mm 3 m/s 748 mmHg 20%
08:00 +34°C° 0 mm 3 m/s 748 mmHg 18%
09:00 +36°C° 0 mm 3 m/s 748 mmHg 16%
10:00 +38°C° 0 mm 4 m/s 748 mmHg 13%
11:00 +41°C° 0 mm 4 m/s 748 mmHg 11%
12:00 +42°C° 0 mm 4 m/s 747 mmHg 10%
13:00 +43°C° 0 mm 4 m/s 746 mmHg 9%
14:00 +44°C° 0 mm 4 m/s 746 mmHg 8%
15:00 +45°C° 0 mm 5 m/s 746 mmHg 8%
16:00 +45°C° 0 mm 6 m/s 745 mmHg 7%
17:00 +44°C° 0 mm 7 m/s 745 mmHg 7%
18:00 +41°C° 0 mm 6 m/s 746 mmHg 8%
19:00 +39°C° 0 mm 6 m/s 746 mmHg 9%
20:00 +36°C° 0 mm 6 m/s 746 mmHg 10%
21:00 +35°C° 0 mm 5 m/s 746 mmHg 11%
22:00 +34°C° 0 mm 5 m/s 747 mmHg 12%
23:00 +34°C° 0 mm 4 m/s 747 mmHg 13%

20 Mai, Jeudi

Heure Température Précipitation Vent Pression Humidité
00:00 +33°C° 0 mm 4 m/s 746 mmHg 15%
01:00 +31°C° 0 mm 3 m/s 746 mmHg 16%
02:00 +30°C° 0 mm 3 m/s 746 mmHg 18%
03:00 +29°C° 0 mm 3 m/s 746 mmHg 19%
04:00 +29°C° 0 mm 3 m/s 746 mmHg 20%
05:00 +28°C° 0 mm 3 m/s 746 mmHg 21%
06:00 +30°C° 0 mm 3 m/s 747 mmHg 20%
07:00 +31°C° 0 mm 3 m/s 747 mmHg 19%
08:00 +34°C° 0 mm 4 m/s 748 mmHg 18%
09:00 +36°C° 0 mm 4 m/s 747 mmHg 15%
10:00 +39°C° 0 mm 5 m/s 747 mmHg 12%
11:00 +41°C° 0 mm 6 m/s 747 mmHg 9%
12:00 +42°C° 0 mm 6 m/s 747 mmHg 8%
13:00 +44°C° 0 mm 6 m/s 746 mmHg 7%
14:00 +45°C° 0 mm 6 m/s 746 mmHg 6%
15:00 +45°C° 0 mm 7 m/s 745 mmHg 6%
16:00 +45°C° 0 mm 7 m/s 745 mmHg 5%
17:00 +44°C° 0 mm 7 m/s 745 mmHg 5%
18:00 +41°C° 0 mm 7 m/s 745 mmHg 7%
19:00 +40°C° 0 mm 7 m/s 746 mmHg 9%
20:00 +38°C° 0 mm 6 m/s 746 mmHg 10%
21:00 +36°C° 0 mm 6 m/s 746 mmHg 11%
22:00 +35°C° 0 mm 5 m/s 747 mmHg 12%
23:00 +34°C° 0 mm 5 m/s 747 mmHg 12%
Voir plus

Nous avons besoin de votre consentement

Meteoprog et ses fournisseurs de services peuvent stocker et accéder à des données personnelles telles que des cookies, des identifiants d'appareils ou d'autres technologies similaires sur votre appareil et traiter ces données pour personnaliser le contenu et les publicités, ainsi que pour fournir des fonctionnalités de médias sociaux et analyser le trafic.

  • Stocker et/ou accéder à des informations sur votre appareil

    Des cookies, des identifiants d'appareils ou d'autres informations peuvent être stockés ou accessibles sur votre appareil aux fins indiquées ci-dessus.

  • Annonces et contenus personnalisés, mesure des annonces et des contenus, connaissance de l'audience et développement de produits

    Les annonces et le contenu peuvent être personnalisés en fonction d'un profil. D'autres données peuvent être ajoutées pour mieux personnaliser les annonces et le contenu. Les performances des publicités et du contenu peuvent être mesurées. Il est possible d'obtenir des informations sur le public qui a vu les publicités et le contenu. Ces données peuvent être utilisées pour développer ou améliorer l'expérience de l'utilisateur, les systèmes et les logiciels.

En cliquant sur "J'accepte", vous autorisez l'utilisation de cookies, des identifiants d'appareils, des balises web ou d'autres technologies similaires. Vos paramètres peuvent être modifiés dans le navigateur de votre appareil.

Dans certains cas, des intérêts légitimes peuvent être invoqués plutôt qu'un consentement. Vous pouvez en savoir plus à ce sujet dans notre Politique de confidentialité et de cookies.